• In Deutschland
  • Länderverzeichnis
  • Für 7 Tage
  • Wassertemperatur
  • Satellitenkarten
  • Wetterkarte
  • Widgets
  • user-avatar
    Anmelden

    Stündliche Wetter Unterhaching

    Heute, 21 Februar, Mittwoch

    Zeit Temperatur Niederschläge Wind Luftdruck Luftfeuchtigkeit
    00:00 -3°C° 0 mm 1 m/S 711 mmHg 97%
    01:00 -3°C° 0 mm 1 m/S 711 mmHg 97%
    02:00 -4°C° 0 mm 1 m/S 711 mmHg 96%
    03:00 -4°C° 0 mm 1 m/S 711 mmHg 96%
    04:00 -4°C° 0 mm 1 m/S 711 mmHg 96%
    05:00 -4°C° 0,1 mm 1 m/S 711 mmHg 95%
    06:00 -4°C° 0,1 mm 1 m/S 711 mmHg 95%
    07:00 -4°C° 0,1 mm 1 m/S 711 mmHg 94%
    08:00 -3°C° 0,1 mm 1 m/S 711 mmHg 92%
    09:00 -4°C° 0,1 mm 2 m/S 711 mmHg 89%
    10:00 -3°C° 0,1 mm 2 m/S 711 mmHg 87%
    11:00 -2°C° 0 mm 2 m/S 711 mmHg 85%
    12:00 -2°C° 0 mm 2 m/S 711 mmHg 83%
    13:00 -1°C° 0 mm 3 m/S 710 mmHg 81%
    14:00 -1°C° 0,1 mm 3 m/S 710 mmHg 81%
    15:00 -1°C° 0,1 mm 3 m/S 710 mmHg 81%
    16:00 -1°C° 0,1 mm 3 m/S 710 mmHg 81%
    17:00 -2°C° 0,1 mm 2 m/S 710 mmHg 84%
    18:00 -2°C° 0,1 mm 2 m/S 710 mmHg 87%
    19:00 -3°C° 0,1 mm 2 m/S 711 mmHg 90%
    20:00 -4°C° 0,1 mm 2 m/S 711 mmHg 90%
    21:00 -4°C° 0,1 mm 2 m/S 711 mmHg 91%
    22:00 -5°C° 0,1 mm 3 m/S 711 mmHg 91%
    23:00 -5°C° 0 mm 3 m/S 711 mmHg 91%

    Morgen, 22 Februar, Donnerstag

    Zeit Temperatur Niederschläge Wind Luftdruck Luftfeuchtigkeit
    00:00 -6°C° 0 mm 3 m/S 711 mmHg 91%
    01:00 -6°C° 0 mm 3 m/S 711 mmHg 90%
    02:00 -6°C° 0,1 mm 3 m/S 710 mmHg 90%
    03:00 -6°C° 0,1 mm 3 m/S 710 mmHg 90%
    04:00 -8°C° 0,1 mm 4 m/S 710 mmHg 90%
    05:00 -8°C° 0,1 mm 4 m/S 709 mmHg 89%
    06:00 -8°C° 0,1 mm 4 m/S 709 mmHg 89%
    07:00 -8°C° 0,1 mm 4 m/S 709 mmHg 89%
    08:00 -7°C° 0,1 mm 4 m/S 709 mmHg 87%
    09:00 -7°C° 0,1 mm 4 m/S 709 mmHg 85%
    10:00 -5°C° 0,1 mm 4 m/S 709 mmHg 84%
    11:00 -5°C° 0,1 mm 5 m/S 709 mmHg 82%
    12:00 -5°C° 0,1 mm 5 m/S 708 mmHg 81%
    13:00 -4°C° 0,1 mm 5 m/S 708 mmHg 79%
    14:00 -4°C° 0,1 mm 5 m/S 708 mmHg 80%
    15:00 -4°C° 0,1 mm 5 m/S 708 mmHg 80%
    16:00 -3°C° 0,1 mm 4 m/S 708 mmHg 81%
    17:00 -3°C° 0,1 mm 4 m/S 708 mmHg 83%
    18:00 -4°C° 0,1 mm 4 m/S 708 mmHg 85%
    19:00 -4°C° 0,1 mm 4 m/S 708 mmHg 87%
    20:00 -5°C° 0 mm 4 m/S 709 mmHg 87%
    21:00 -5°C° 0 mm 4 m/S 709 mmHg 88%
    22:00 -5°C° 0 mm 4 m/S 709 mmHg 88%
    23:00 -5°C° 0 mm 4 m/S 709 mmHg 88%

    übermorgen, 23 Februar, Freitag

    Zeit Temperatur Niederschläge Wind Luftdruck Luftfeuchtigkeit
    00:00 -5°C° 0 mm 3 m/S 709 mmHg 89%
    01:00 -6°C° 0 mm 3 m/S 709 mmHg 89%
    02:00 -6°C° 0 mm 3 m/S 709 mmHg 89%
    03:00 -6°C° 0 mm 3 m/S 708 mmHg 89%
    04:00 -6°C° 0 mm 3 m/S 708 mmHg 89%
    05:00 -6°C° 0,1 mm 3 m/S 708 mmHg 89%
    06:00 -6°C° 0,1 mm 3 m/S 708 mmHg 89%
    07:00 -7°C° 0,1 mm 4 m/S 709 mmHg 88%
    08:00 -5°C° 0,1 mm 4 m/S 709 mmHg 87%
    09:00 -5°C° 0,1 mm 4 m/S 709 mmHg 86%
    10:00 -4°C° 0,1 mm 4 m/S 709 mmHg 84%
    11:00 -3°C° 0 mm 4 m/S 709 mmHg 83%
    12:00 -3°C° 0 mm 4 m/S 709 mmHg 82%
    13:00 -2°C° 0 mm 4 m/S 708 mmHg 81%
    14:00 -2°C° 0 mm 4 m/S 708 mmHg 82%
    15:00 -1°C° 0 mm 4 m/S 708 mmHg 82%
    16:00 -1°C° 0 mm 4 m/S 708 mmHg 83%
    17:00 -2°C° 0 mm 4 m/S 708 mmHg 85%
    18:00 -2°C° 0 mm 4 m/S 709 mmHg 86%
    19:00 -3°C° 0 mm 4 m/S 709 mmHg 88%
    20:00 -3°C° 0 mm 4 m/S 709 mmHg 88%
    21:00 -4°C° 0 mm 4 m/S 709 mmHg 88%
    22:00 -4°C° 0 mm 4 m/S 709 mmHg 89%
    23:00 -4°C° 0 mm 4 m/S 709 mmHg 89%

    24 Februar, Samstag

    Zeit Temperatur Niederschläge Wind Luftdruck Luftfeuchtigkeit
    00:00 -5°C° 0 mm 4 m/S 709 mmHg 89%
    01:00 -5°C° 0 mm 4 m/S 709 mmHg 89%
    02:00 -5°C° 0 mm 4 m/S 709 mmHg 89%
    03:00 -5°C° 0 mm 4 m/S 709 mmHg 88%
    04:00 -5°C° 0 mm 4 m/S 709 mmHg 88%
    05:00 -6°C° 0 mm 3 m/S 709 mmHg 88%
    06:00 -6°C° 0 mm 3 m/S 710 mmHg 87%
    07:00 -6°C° 0 mm 3 m/S 710 mmHg 87%
    08:00 -5°C° 0 mm 4 m/S 710 mmHg 85%
    09:00 -4°C° 0 mm 4 m/S 710 mmHg 82%
    10:00 -4°C° 0 mm 4 m/S 710 mmHg 80%
    11:00 -3°C° 0 mm 4 m/S 710 mmHg 78%
    12:00 -2°C° 0 mm 4 m/S 710 mmHg 76%
    13:00 -1°C° 0 mm 5 m/S 710 mmHg 75%
    14:00 -1°C° 0 mm 5 m/S 710 mmHg 73%
    15:00 -1°C° 0 mm 5 m/S 709 mmHg 72%
    16:00 -2°C° 0 mm 5 m/S 709 mmHg 70%
    17:00 -3°C° 0 mm 4 m/S 710 mmHg 71%
    18:00 -4°C° 0 mm 4 m/S 710 mmHg 73%
    19:00 -5°C° 0 mm 4 m/S 710 mmHg 74%
    20:00 -5°C° 0 mm 4 m/S 711 mmHg 74%
    21:00 -7°C° 0 mm 4 m/S 711 mmHg 73%
    22:00 -7°C° 0 mm 4 m/S 711 mmHg 73%
    23:00 -8°C° 0 mm 4 m/S 711 mmHg 73%

    25 Februar, Sonntag

    Zeit Temperatur Niederschläge Wind Luftdruck Luftfeuchtigkeit
    00:00 -8°C° 0 mm 4 m/S 711 mmHg 73%
    01:00 -9°C° 0 mm 4 m/S 711 mmHg 73%
    02:00 -9°C° 0 mm 4 m/S 711 mmHg 73%
    03:00 -10°C° 0 mm 4 m/S 711 mmHg 74%
    04:00 -10°C° 0 mm 4 m/S 711 mmHg 74%
    05:00 -11°C° 0 mm 4 m/S 712 mmHg 75%
    06:00 -11°C° 0 mm 4 m/S 712 mmHg 75%
    07:00 -11°C° 0 mm 4 m/S 712 mmHg 75%
    08:00 -11°C° 0 mm 4 m/S 713 mmHg 72%
    09:00 -11°C° 0 mm 5 m/S 713 mmHg 68%
    10:00 -11°C° 0 mm 5 m/S 713 mmHg 65%
    11:00 -10°C° 0 mm 5 m/S 713 mmHg 62%
    12:00 -10°C° 0 mm 5 m/S 713 mmHg 60%
    13:00 -8°C° 0 mm 5 m/S 714 mmHg 57%
    14:00 -8°C° 0 mm 5 m/S 714 mmHg 56%
    15:00 -8°C° 0 mm 4 m/S 714 mmHg 56%
    16:00 -8°C° 0 mm 4 m/S 714 mmHg 55%
    17:00 -9°C° 0 mm 4 m/S 714 mmHg 59%
    18:00 -9°C° 0 mm 3 m/S 715 mmHg 63%
    19:00 -10°C° 0 mm 3 m/S 715 mmHg 67%
    20:00 -12°C° 0 mm 3 m/S 716 mmHg 68%
    21:00 -12°C° 0 mm 3 m/S 716 mmHg 70%
    22:00 -13°C° 0 mm 3 m/S 716 mmHg 71%
    23:00 -13°C° 0 mm 3 m/S 716 mmHg 72%

    26 Februar, Montag

    Zeit Temperatur Niederschläge Wind Luftdruck Luftfeuchtigkeit
    00:00 -13°C° 0 mm 3 m/S 716 mmHg 74%
    01:00 -13°C° 0 mm 2 m/S 716 mmHg 75%
    02:00 -13°C° 0 mm 2 m/S 716 mmHg 76%
    03:00 -13°C° 0 mm 2 m/S 716 mmHg 77%
    04:00 -14°C° 0 mm 2 m/S 716 mmHg 77%
    05:00 -14°C° 0 mm 2 m/S 716 mmHg 78%
    06:00 -14°C° 0 mm 2 m/S 716 mmHg 78%
    07:00 -15°C° 0 mm 2 m/S 716 mmHg 79%
    08:00 -13°C° 0 mm 2 m/S 716 mmHg 73%
    09:00 -12°C° 0 mm 2 m/S 715 mmHg 68%
    10:00 -10°C° 0 mm 2 m/S 715 mmHg 63%
    11:00 -9°C° 0 mm 2 m/S 715 mmHg 59%
    12:00 -8°C° 0 mm 2 m/S 714 mmHg 56%
    13:00 -8°C° 0 mm 3 m/S 714 mmHg 52%
    14:00 -8°C° 0 mm 3 m/S 714 mmHg 52%
    15:00 -9°C° 0 mm 3 m/S 714 mmHg 52%
    16:00 -9°C° 0 mm 3 m/S 713 mmHg 53%
    17:00 -8°C° 0 mm 2 m/S 713 mmHg 57%
    18:00 -9°C° 0 mm 2 m/S 714 mmHg 61%
    19:00 -9°C° 0 mm 1 m/S 714 mmHg 66%
    20:00 -10°C° 0 mm 1 m/S 714 mmHg 67%
    21:00 -10°C° 0 mm 1 m/S 714 mmHg 69%
    22:00 -13°C° 0 mm 2 m/S 714 mmHg 70%
    23:00 -13°C° 0 mm 2 m/S 714 mmHg 71%
    Mehr zeigen